Showing default

GSAT 6, 40880

Orbit data source: Space-Track

GSAT 6, 40880 is a payload satellite owned by ISRO (IN) in GEO that was launched on Thu, 27 Aug 2015 UTC via a GSLV MK II launch vehicle from the Sirharikota (SRI). Payload-class satellites include a variety of spacecraft equipped with specific instruments for various scientific and technological missions. These include communications satellites like Starlink; space stations such as the ISS; scientific satellites like the Hubble; Earth observation satellites from companies like Planet Labs, Umbra, and HawkEye 360; GPS; miniature CubeSats for education and research; and military/defense satellites.

Not visible in the next 10 days
Identifier
40880, 2015-041A
Orbit
GEO
Country
Flag of ININ / IND
Related business
Manufacturer
ISRO SAC/Banga
Mission
Operational Defense Communications
Bus & Motor
I2K, ISRO LAM
Mass
2,217 kg wet, 985 kg dry
Launch date (UTC)
2015-08-27 (10 years ago)
Launch vehicle
GSLV MK II
Launch site
Sirharikota (SRI)
Object type
Payload
Rocket body
Debris
Shape & HBR
Box + 2 Pan, 4.8 m
Radar Cross Section
13.236 m², Large (>1 m²)

Expand to show TLE details & history
Last TLE update: 14 hours ago

TLE from 14 hours ago
0 GSAT 6
1 40880U 15041A   25340.87109465 -.00000154  00000-0  00000-0 0  9996
2 40880   1.4214  85.1315 0003011 170.5324 216.3402  1.00269182 37674
Epoch: 2025-12-06T20:54Z
TLE epoch observation values (Epoch: 2025-12-06T20:54:22.577Z)
Latitude
0.66136°
Longitude
82.48118°
Altitude
35,797.016 km
Speed
3.074 km/s
True Right ascension
07h 27m 52s
True Declination
0° 39' 38"
Sunlit
Object was in daylight at epoch
Visualization orbit readout
Latitude
Unknown
Longitude
Unknown
Altitude
Unknown
Speed
Unknown
Apparent Right ascension
Unknown
Apparent Declination
Unknown
Sunlit
N/A
Visualization observer readout
Local Sidereal Time
09:07:42
Azimuth
Unknown
Elevation
Unknown
Doppler factor
Unknown
Orbital elements
Apogee altitude
35,801.09 km
Perigee altitude
35,775.698 km
Semi-major axis
42,166.531 km
Eccentricity
0.0003
Inclination
1.4214°
RAAN
85.1315°
Arg. of periapsis
170.5324°
True anomaly
216.31976°
Mean anomaly
216.3402°
Eccentric anomaly
216.32998°
Mean motion
0.25066 °/min
Orbital period
1,436.19 mins
BSTAR
0
Loading maneuver chart data...
Computing Atmospheric mass density...
Loading historical data...
Loading historical data...
Loading historical data...
Loading historical data...
Loading historical data...
Loading historical data...
Loading historical data...
Other satellites on launch #41 in the year 2015 (2015-08-27 UTC)

Documentation

Showing up to 5 results
|